This is the latest recevied weather packets stored in our database for station/object K2CCS. If no packets are shown the sender has not sent any weather packets the latest 10 day(s).
| Time | Temp. | Humidity | Pressure | Rain* | Wind** | Luminosity | Snow |
|---|---|---|---|---|---|---|---|
| 1777841444 | 13.89° C | 33% | 1012.6 hPa | 0 mm | - | 356 W/m² | - |
| 1777841141 | 13.89° C | 33% | 1012.5 hPa | 0 mm | - | 490 W/m² | - |
| 1777840838 | 13.89° C | 33% | 1012.5 hPa | 0 mm | - | 496 W/m² | - |
| 1777840535 | 13.89° C | 32% | 1012.5 hPa | 0 mm | - | 548 W/m² | - |
| 1777840232 | 13.89° C | 34% | 1012.5 hPa | 0 mm | - | 505 W/m² | - |
| 1777839930 | 13.33° C | 34% | 1012.5 hPa | 0 mm | - | 564 W/m² | - |
| 1777839628 | 12.78° C | 35% | 1012.5 hPa | 0 mm | - | 592 W/m² | - |
| 1777839326 | 12.22° C | 37% | 1012.8 hPa | 0 mm | - | 238 W/m² | - |
| 1777839023 | 11.67° C | 38% | 1012.9 hPa | 0 mm | - | 158 W/m² | - |
| 1777838719 | 12.78° C | 36% | 1013 hPa | 0 mm | - | 137 W/m² | - |
| 1777838416 | 12.78° C | 36% | 1012.9 hPa | 0 mm | - | 132 W/m² | - |
| 1777838113 | 12.22° C | 36% | 1012.9 hPa | 0 mm | - | 429 W/m² | - |
| 1777837809 | 12.22° C | 37% | 1013.1 hPa | 0 mm | - | 224 W/m² | - |
| 1777837507 | 12.22° C | 36% | 1013.1 hPa | 0 mm | - | 215 W/m² | - |
| 1777837206 | 12.22° C | 37% | 1013.1 hPa | 0 mm | - | 232 W/m² | - |
| 1777836903 | 12.78° C | 37% | 1013.1 hPa | 0 mm | - | 332 W/m² | - |
| 1777836598 | 12.22° C | 37% | 1013.1 hPa | 0 mm | - | 624 W/m² | - |
| 1777836295 | 11.67° C | 38% | 1013.2 hPa | 0 mm | - | 249 W/m² | - |
| 1777835990 | 11.67° C | 39% | 1013.4 hPa | 0 mm | - | 193 W/m² | - |
| 1777835688 | 11.67° C | 38% | 1013.6 hPa | 0 mm | - | 160 W/m² | - |
| 1777835384 | 11.67° C | 38% | 1013.6 hPa | 0 mm | - | 183 W/m² | - |
| 1777835082 | 11.67° C | 39% | 1013.5 hPa | 0 mm | - | 246 W/m² | - |
| 1777834779 | 11.67° C | 38% | 1013.8 hPa | 0 mm | - | 513 W/m² | - |
| 1777834475 | 11.67° C | 39% | 1013.6 hPa | 0 mm | - | 212 W/m² | - |
| 1777834174 | 11.11° C | 40% | 1013.7 hPa | 0 mm | - | 380 W/m² | - |
* Rain latest hour (hover to see other rain measurements)
** Current wind speed in m/s (hover to see current wind gust speed)